User: anonymous   Login
Location: Newark
(41.6478°N, 9.0078°E)
Time: 17:58:57
(UTC+00:00)
Language:

NO-84 - Orbit

View from above orbital plane
View from above orbital plane
View from above satellite
View from above satellite

Ground track
Ground track

The orbit data is extracted from the following two-line orbital elements,

1 40654U 15025D   20023.35937847  .00006911  00000-0  90973-4 0  8342
2 40654  54.9860 252.6349 0127532 168.0203 192.3914 15.50805443146335
Epoch (UTC): 23 January 2020 08:37:30
Eccentricity: 0.0127532
inclination: 54.9860°
perigee height: 328 km
apogee height: 501 km
right ascension of ascending node: 252.6349°
argument of perigee: 168.0203°
revolutions per day: 15.50805443
mean anomaly at epoch: 192.3914°
orbit number at epoch: 14633

The dashed part of the orbit path shows where the satellite is in the earth's shadow,  

DLR